カタログに戻る

STARLINK-30934

運用中通信VLEO
NORAD 58395·PAYLOAD·🇺🇸 United States

打ち上げ Nov 20, 2023 から Vandenberg Space Force Base

Loading…

次のパス (今後24時間)

TLE

最新Source: CelesTrak SupGP

元期: Sep 15, 2026, 01:41 UTC

1 58395C 23178X   26258.07062500 -.00001564  00000+0 -46173-4 0  2584
2 58395  53.1576 197.4552 0001437  94.8877 258.7938 15.34418850    12

AllMySatでSTARLINK-30934をリアルタイム追跡

Download on the App Store